| time (UTC) | temp F | wind direction | speed knots | gust knots | rain 1hr in | rain 24hr in | rain mn in | humidity % | barometer mb |
| 20260507150222 | 57 | 213 | 1.7 | 1.7 | 0.00 | 0.00 | 0.00 | 90 | 1017.5 |
| 20260507145718 | 57 | 218 | 3.5 | 5.2 | 0.00 | 0.00 | 0.00 | 90 | 1017.4 |
| 20260507145215 | 57 | 192 | 5.2 | 7.8 | 0.00 | 0.00 | 0.00 | 90 | 1017.2 |
| 20260507144712 | 57 | 205 | 2.6 | 2.6 | 0.00 | 0.00 | 0.00 | 91 | 1017.3 |
| 20260507144210 | 57 | 138 | 6.1 | 8.7 | 0.00 | 0.00 | 0.00 | 92 | 1017.1 |
| 20260507143706 | 57 | 197 | 4.3 | 6.1 | 0.00 | 0.00 | 0.00 | 93 | 1017.1 |
| 20260507143203 | 56 | 216 | 2.6 | 4.3 | 0.00 | 0.00 | 0.00 | 93 | 1016.9 |
| 20260507142659 | 56 | 225 | 4.3 | 5.2 | 0.00 | 0.00 | 0.00 | 93 | 1016.9 |
| 20260507142156 | 56 | 172 | 1.7 | 2.6 | 0.00 | 0.00 | 0.00 | 93 | 1017.5 |
| 20260507141652 | 56 | 207 | 1.7 | 1.7 | 0.00 | 0.00 | 0.00 | 93 | 1017.6 |
| 20260507141149 | 56 | 182 | 4.3 | 7.0 | 0.00 | 0.00 | 0.00 | 94 | 1017.8 |
| 20260507140645 | 56 | 180 | 4.3 | 6.1 | 0.00 | 0.00 | 0.00 | 94 | 1017.8 |
| 20260507140143 | 56 | 189 | 5.2 | 7.0 | 0.00 | 0.00 | 0.00 | 95 | 1017.9 |
| 20260507135640 | 56 | 225 | 2.6 | 2.6 | 0.00 | 0.00 | 0.00 | 95 | 1017.9 |
| 20260507135137 | 56 | 186 | 6.1 | 7.8 | 0.00 | 0.00 | 0.00 | 95 | 1017.7 |
| 20260507134633 | 57 | 194 | 1.7 | 1.7 | 0.00 | 0.00 | 0.00 | 95 | 1017.8 |
| 20260507134130 | 57 | 197 | 0.9 | 1.7 | 0.00 | 0.00 | 0.00 | 95 | 1017.9 |
| 20260507133626 | 57 | 201 | 1.7 | 1.7 | 0.00 | 0.00 | 0.00 | 95 | 1017.8 |
| 20260507133123 | 57 | 226 | 2.6 | 4.3 | 0.00 | 0.00 | 0.00 | 95 | 1017.4 |
| 20260507132620 | 57 | 201 | 1.7 | 1.7 | 0.00 | 0.00 | 0.00 | 94 | 1017.1 |
| 20260507132116 | 57 | 203 | 2.6 | 4.3 | 0.00 | 0.00 | 0.00 | 93 | 1017.2 |
| 20260507131613 | 57 | 202 | 4.3 | 5.2 | 0.00 | 0.00 | 0.00 | 93 | 1017.5 |
| 20260507131111 | 57 | 187 | 2.6 | 4.3 | 0.00 | 0.00 | 0.00 | 93 | 1017.5 |
| 20260507130607 | 57 | 209 | 1.7 | 2.6 | 0.00 | 0.00 | 0.00 | 93 | 1017.3 |
| 20260507130106 | 57 | 213 | 3.5 | 4.3 | 0.00 | 0.00 | 0.00 | 93 | 1017.3 |
| 20260507125604 | 57 | 196 | 0.9 | 0.9 | 0.00 | 0.00 | 0.00 | 93 | 1017.1 |
| 20260507125101 | 58 | 214 | 1.7 | 1.7 | 0.00 | 0.00 | 0.00 | 93 | 1016.9 |
| 20260507124557 | 58 | 200 | 2.6 | 4.3 | 0.00 | 0.00 | 0.00 | 92 | 1017.3 |
| 20260507124055 | 58 | 200 | 2.6 | 2.6 | 0.00 | 0.00 | 0.00 | 92 | 1017.0 |
| 20260507123553 | 58 | 172 | 1.7 | 2.6 | 0.00 | 0.00 | 0.00 | 91 | 1016.6 |
| 20260507123050 | 58 | 207 | 2.6 | 4.3 | 0.00 | 0.00 | 0.00 | 91 | 1016.9 |
| 20260507122545 | 58 | 192 | 1.7 | 4.3 | 0.00 | 0.00 | 0.00 | 91 | 1016.4 |
| 20260507122041 | 58 | 213 | 4.3 | 8.7 | 0.00 | 0.00 | 0.00 | 91 | 1016.2 |
| 20260507121537 | 58 | 202 | 4.3 | 7.0 | 0.00 | 0.00 | 0.00 | 91 | 1016.1 |
| 20260507121033 | 58 | 129 | 6.1 | 9.6 | 0.00 | 0.00 | 0.00 | 91 | 1016.3 |
| 20260507120529 | 58 | 188 | 8.7 | 11.3 | 0.00 | 0.00 | 0.00 | 91 | 1015.8 |
| 20260507120026 | 58 | 187 | 6.1 | 12.2 | 0.00 | 0.00 | 0.00 | 91 | 1015.7 |
| 20260507115522 | 58 | 189 | 7.8 | 11.3 | 0.00 | 0.00 | 0.00 | 90 | 1015.7 |
| 20260507115018 | 58 | 188 | 6.1 | 8.7 | 0.00 | 0.00 | 0.00 | 90 | 1015.6 |
| 20260507114514 | 58 | 193 | 9.6 | 12.2 | 0.00 | 0.00 | 0.00 | 90 | 1015.6 |
| 20260507114012 | 58 | 202 | 1.7 | 1.7 | 0.00 | 0.00 | 0.00 | 90 | 1015.8 |
| 20260507113509 | 58 | 217 | 6.1 | 7.0 | 0.00 | 0.00 | 0.00 | 90 | 1015.3 |
| 20260507113006 | 58 | 171 | 7.8 | 11.3 | 0.00 | 0.00 | 0.00 | 90 | 1015.5 |
| 20260507112504 | 58 | 200 | 0.9 | 1.7 | 0.00 | 0.00 | 0.00 | 90 | 1015.3 |
| 20260507112000 | 59 | 206 | 4.3 | 6.1 | 0.00 | 0.00 | 0.00 | 89 | 1015.6 |
| 20260507111459 | 59 | 187 | 2.6 | 4.3 | 0.00 | 0.00 | 0.00 | 89 | 1015.5 |
| 20260507110954 | 59 | 222 | 4.3 | 7.0 | 0.00 | 0.00 | 0.00 | 89 | 1015.0 |
| 20260507110450 | 59 | 193 | 4.3 | 6.1 | 0.00 | 0.00 | 0.00 | 89 | 1015.4 |
| 20260507105947 | 59 | 193 | 6.1 | 7.8 | 0.00 | 0.00 | 0.00 | 88 | 1015.2 |
| 20260507105444 | 59 | 198 | 0.9 | 1.7 | 0.00 | 0.00 | 0.00 | 88 | 1015.2 |
| 20260507104940 | 59 | 212 | 4.3 | 6.1 | 0.00 | 0.00 | 0.00 | 88 | 1015.5 |
| 20260507104438 | 59 | 212 | 2.6 | 4.3 | 0.00 | 0.00 | 0.00 | 88 | 1015.5 |
| 20260507103933 | 59 | 200 | 6.1 | 7.8 | 0.00 | 0.00 | 0.00 | 88 | 1015.4 |
| 20260507103430 | 59 | 192 | 4.3 | 6.1 | 0.00 | 0.00 | 0.00 | 88 | 1015.4 |
| 20260507102926 | 59 | 181 | 3.5 | 5.2 | 0.00 | 0.00 | 0.00 | 88 | 1015.1 |
| 20260507102423 | 59 | 208 | 0.9 | 1.7 | 0.00 | 0.00 | 0.00 | 88 | 1015.3 |
| 20260507101919 | 59 | 217 | 1.7 | 1.7 | 0.00 | 0.00 | 0.00 | 88 | 1015.1 |
| 20260507101414 | 59 | 211 | 3.5 | 5.2 | 0.00 | 0.00 | 0.00 | 87 | 1015.3 |
| 20260507100911 | 59 | 218 | 2.6 | 5.2 | 0.00 | 0.00 | 0.00 | 87 | 1015.1 |
| 20260507100409 | 59 | 219 | 4.3 | 7.8 | 0.00 | 0.00 | 0.00 | 87 | 1015.1 |
| 20260507095907 | 59 | 185 | 1.7 | 1.7 | 0.00 | 0.00 | 0.00 | 87 | 1015.0 |
| 20260507095403 | 60 | 262 | 0.9 | 4.3 | 0.00 | 0.00 | 0.00 | 87 | 1015.0 |
| 20260507094901 | 60 | 186 | 0.9 | 1.7 | 0.00 | 0.00 | 0.00 | 88 | 1015.0 |
| 20260507094357 | 60 | 202 | 1.7 | 2.6 | 0.00 | 0.00 | 0.00 | 88 | 1015.2 |
| 20260507093854 | 60 | 154 | 5.2 | 7.0 | 0.00 | 0.00 | 0.00 | 88 | 1014.7 |
| 20260507093352 | 60 | 198 | 2.6 | 2.6 | 0.00 | 0.00 | 0.00 | 88 | 1014.6 |
| 20260507092850 | 60 | 210 | 0.9 | 0.9 | 0.00 | 0.00 | 0.00 | 88 | 1015.0 |
| 20260507092346 | 60 | 208 | 1.7 | 1.7 | 0.00 | 0.00 | 0.00 | 88 | 1015.4 |
| 20260507091843 | 60 | 191 | 4.3 | 5.2 | 0.00 | 0.00 | 0.00 | 88 | 1015.1 |
| 20260507091339 | 60 | 202 | 0.0 | 0.9 | 0.00 | 0.00 | 0.00 | 88 | 1015.1 |
| 20260507090835 | 60 | 211 | 0.0 | 0.0 | 0.00 | 0.00 | 0.00 | 88 | 1015.2 |
| 20260507090331 | 60 | 190 | 0.0 | 0.9 | 0.00 | 0.00 | 0.00 | 88 | 1015.0 |
| 20260507085828 | 60 | 209 | 2.6 | 4.3 | 0.00 | 0.00 | 0.00 | 88 | 1014.9 |
| 20260507085325 | 60 | 218 | 1.7 | 1.7 | 0.00 | 0.00 | 0.00 | 88 | 1015.1 |
| 20260507084823 | 60 | 223 | 4.3 | 5.2 | 0.00 | 0.00 | 0.00 | 88 | 1015.0 |
| 20260507084319 | 60 | 189 | 2.6 | 2.6 | 0.00 | 0.00 | 0.00 | 88 | 1015.1 |
| 20260507083817 | 60 | 194 | 2.6 | 2.6 | 0.00 | 0.00 | 0.00 | 88 | 1014.8 |
| 20260507083313 | 60 | 191 | 1.7 | 1.7 | 0.00 | 0.00 | 0.00 | 88 | 1014.9 |
| 20260507082809 | 60 | 181 | 2.6 | 4.3 | 0.00 | 0.00 | 0.00 | 88 | 1015.0 |
| 20260507082306 | 60 | 205 | 0.9 | 1.7 | 0.00 | 0.00 | 0.00 | 88 | 1015.0 |
| 20260507081802 | 60 | 195 | 1.7 | 1.7 | 0.00 | 0.00 | 0.00 | 88 | 1015.2 |
| 20260507081258 | 60 | 200 | 0.9 | 0.9 | 0.00 | 0.00 | 0.00 | 88 | 1015.1 |
| 20260507080755 | 60 | 197 | 0.9 | 0.9 | 0.00 | 0.00 | 0.00 | 88 | 1014.8 |
| 20260507080251 | 60 | 191 | 1.7 | 1.7 | 0.00 | 0.00 | 0.00 | 88 | 1014.9 |
| 20260507075746 | 60 | 193 | 0.9 | 0.9 | 0.00 | 0.00 | 0.00 | 88 | 1015.2 |
| 20260507075243 | 60 | 197 | 2.6 | 4.3 | 0.00 | 0.00 | 0.00 | 88 | 1014.8 |
| 20260507074739 | 60 | 198 | 0.0 | 0.9 | 0.00 | 0.00 | 0.00 | 89 | 1015.1 |
| 20260507074237 | 60 | 195 | 0.0 | 0.0 | 0.00 | 0.00 | 0.00 | 89 | 1015.3 |
| 20260507073733 | 60 | 196 | 0.9 | 0.9 | 0.00 | 0.00 | 0.00 | 89 | 1014.6 |
| 20260507073230 | 60 | 194 | 0.9 | 1.7 | 0.00 | 0.00 | 0.00 | 89 | 1014.9 |
| 20260507072728 | 60 | 195 | 0.9 | 0.9 | 0.00 | 0.00 | 0.00 | 89 | 1014.8 |
| 20260507072225 | 60 | 193 | 0.0 | 0.9 | 0.00 | 0.00 | 0.00 | 89 | 1015.0 |
| 20260507071723 | 60 | 193 | 0.0 | 0.9 | 0.00 | 0.00 | 0.00 | 88 | 1015.1 |
| 20260507071219 | 60 | 186 | 1.7 | 2.6 | 0.00 | 0.00 | 0.00 | 88 | 1014.9 |
| 20260507070716 | 60 | 209 | 0.9 | 0.9 | 0.00 | 0.00 | 0.00 | 88 | 1014.6 |
| 20260507070213 | 60 | 215 | 2.6 | 2.6 | 0.00 | 0.00 | 0.00 | 88 | 1014.7 |
| 20260507065709 | 60 | 208 | 3.5 | 4.3 | 0.00 | 0.00 | 0.00 | 88 | 1014.4 |
| 20260507065206 | 60 | 213 | 1.7 | 2.6 | 0.00 | 0.00 | 0.00 | 88 | 1014.7 |
| 20260507064704 | 60 | 208 | 0.0 | 0.9 | 0.00 | 0.00 | 0.00 | 88 | 1014.9 |
| 20260507064203 | 60 | 206 | 0.9 | 0.9 | 0.00 | 0.00 | 0.00 | 88 | 1014.8 |
| 20260507063659 | 60 | 209 | 1.7 | 1.7 | 0.00 | 0.00 | 0.00 | 88 | 1014.6 |
| 20260507063156 | 60 | 205 | 2.6 | 2.6 | 0.00 | 0.00 | 0.00 | 87 | 1014.7 |
| 20260507062653 | 60 | 203 | 4.3 | 6.1 | 0.00 | 0.00 | 0.00 | 87 | 1015.0 |
| 20260507062150 | 60 | 198 | 3.5 | 4.3 | 0.00 | 0.00 | 0.00 | 87 | 1014.6 |
| 20260507061648 | 60 | 214 | 1.7 | 1.7 | 0.00 | 0.00 | 0.00 | 87 | 1014.7 |
| 20260507061146 | 61 | 196 | 1.7 | 2.6 | 0.00 | 0.00 | 0.00 | 87 | 1014.9 |
| 20260507060644 | 61 | 194 | 0.0 | 0.9 | 0.00 | 0.00 | 0.00 | 87 | 1015.1 |
| 20260507060140 | 61 | 184 | 2.6 | 2.6 | 0.00 | 0.00 | 0.00 | 87 | 1014.5 |
| 20260507055635 | 61 | 210 | 0.9 | 0.9 | 0.00 | 0.00 | 0.00 | 87 | 1014.6 |
| 20260507055132 | 61 | 213 | 2.6 | 2.6 | 0.00 | 0.00 | 0.00 | 87 | 1014.5 |
| 20260507054628 | 61 | 210 | 3.5 | 4.3 | 0.00 | 0.00 | 0.00 | 87 | 1014.2 |
| 20260507054125 | 61 | 244 | 7.0 | 7.8 | 0.00 | 0.00 | 0.00 | 87 | 1013.7 |
| 20260507053623 | 61 | 202 | 3.5 | 4.3 | 0.00 | 0.00 | 0.00 | 87 | 1014.3 |
| 20260507053121 | 61 | 209 | 1.7 | 1.7 | 0.00 | 0.00 | 0.00 | 87 | 1014.5 |
| 20260507052619 | 61 | 212 | 2.6 | 4.3 | 0.00 | 0.00 | 0.00 | 87 | 1014.5 |
| 20260507052115 | 61 | 204 | 2.6 | 2.6 | 0.00 | 0.00 | 0.00 | 87 | 1014.4 |
| 20260507051613 | 61 | 208 | 1.7 | 1.7 | 0.00 | 0.00 | 0.00 | 87 | 1014.4 |
| 20260507051109 | 61 | 198 | 3.5 | 5.2 | 0.00 | 0.00 | 0.00 | 87 | 1014.5 |
| 20260507050606 | 61 | 217 | 0.9 | 0.9 | 0.00 | 0.00 | 0.00 | 87 | 1014.6 |
| 20260507045559 | 62 | 211 | 1.7 | 2.6 | 0.00 | 0.00 | 0.00 | 87 | 1014.4 |
| 20260507045057 | 62 | 200 | 2.6 | 4.3 | 0.00 | 0.00 | 0.00 | 87 | 1014.4 |
| 20260507044553 | 62 | 214 | 2.6 | 2.6 | 0.00 | 0.00 | 0.00 | 87 | 1014.5 |
| 20260507044050 | 62 | 216 | 1.7 | 1.7 | 0.00 | 0.00 | 0.00 | 87 | 1014.2 |
| 20260507043545 | 62 | 200 | 2.6 | 2.6 | 0.00 | 0.00 | 0.00 | 87 | 1013.7 |
| 20260507043043 | 62 | 202 | 4.3 | 5.2 | 0.00 | 0.00 | 0.00 | 87 | 1014.0 |
| 20260507042539 | 62 | 213 | 1.7 | 2.6 | 0.00 | 0.00 | 0.00 | 86 | 1014.1 |
| 20260507042035 | 62 | 209 | 2.6 | 5.2 | 0.00 | 0.00 | 0.00 | 86 | 1014.1 |
| 20260507041532 | 62 | 213 | 1.7 | 2.6 | 0.00 | 0.00 | 0.00 | 86 | 1014.1 |
| 20260507041029 | 62 | 222 | 0.9 | 1.7 | 0.00 | 0.00 | 0.00 | 86 | 1014.0 |
| 20260507040525 | 62 | 159 | 6.1 | 9.6 | 0.00 | 0.00 | 0.00 | 86 | 1013.7 |
| 20260507040021 | 62 | 208 | 2.6 | 4.3 | 0.00 | 0.00 | 0.00 | 86 | 1014.0 |
| 20260507035518 | 62 | 200 | 5.2 | 7.0 | 0.00 | 0.00 | 0.00 | 86 | 1013.6 |
| 20260507035014 | 62 | 190 | 4.3 | 6.1 | 0.00 | 0.00 | 0.00 | 86 | 1013.3 |
| 20260507034511 | 62 | 211 | 1.7 | 2.6 | 0.00 | 0.00 | 0.00 | 86 | 1013.5 |
| 20260507034009 | 62 | 200 | 6.1 | 8.7 | 0.00 | 0.00 | 0.00 | 86 | 1013.5 |
| 20260507033507 | 62 | 211 | 4.3 | 5.2 | 0.00 | 0.00 | 0.00 | 86 | 1013.6 |
| 20260507033004 | 62 | 228 | 5.2 | 7.0 | 0.00 | 0.00 | 0.00 | 86 | 1013.4 |
| 20260507032501 | 62 | 213 | 6.1 | 7.0 | 0.00 | 0.00 | 0.00 | 86 | 1013.7 |
| 20260507031956 | 62 | 213 | 2.6 | 2.6 | 0.00 | 0.00 | 0.00 | 86 | 1013.6 |
| 20260507031453 | 62 | 224 | 1.7 | 1.7 | 0.00 | 0.00 | 0.00 | 86 | 1013.4 |
| 20260507030950 | 62 | 208 | 4.3 | 7.0 | 0.00 | 0.00 | 0.00 | 86 | 1013.6 |
| 20260507030447 | 62 | 209 | 4.3 | 7.0 | 0.00 | 0.00 | 0.00 | 86 | 1013.7 |
| 20260507025944 | 62 | 224 | 0.9 | 1.7 | 0.00 | 0.00 | 0.00 | 86 | 1013.8 |
| 20260507025441 | 62 | 210 | 0.9 | 0.9 | 0.00 | 0.00 | 0.00 | 86 | 1013.6 |
| 20260507024939 | 62 | 189 | 2.6 | 4.3 | 0.00 | 0.00 | 0.00 | 86 | 1013.6 |
| 20260507024437 | 62 | 188 | 5.2 | 6.1 | 0.00 | 0.00 | 0.00 | 87 | 1014.0 |
| 20260507023932 | 62 | 212 | 0.0 | 0.9 | 0.00 | 0.00 | 0.00 | 87 | 1013.3 |
| 20260507023429 | 62 | 211 | 3.5 | 4.3 | 0.00 | 0.00 | 0.00 | 87 | 1013.1 |
| 20260507022926 | 62 | 187 | 0.9 | 1.7 | 0.00 | 0.00 | 0.00 | 87 | 1013.1 |
| 20260507022424 | 62 | 180 | 1.7 | 1.7 | 0.00 | 0.00 | 0.00 | 87 | 1013.5 |
| 20260507021919 | 62 | 183 | 4.3 | 6.1 | 0.00 | 0.00 | 0.00 | 87 | 1013.5 |
| 20260507021414 | 62 | 207 | 0.9 | 0.9 | 0.00 | 0.00 | 0.00 | 87 | 1013.1 |
| 20260507020912 | 62 | 239 | 2.6 | 2.6 | 0.00 | 0.00 | 0.00 | 87 | 1013.2 |
| 20260507020408 | 62 | 222 | 3.5 | 4.3 | 0.00 | 0.00 | 0.00 | 87 | 1013.0 |
| 20260507015906 | 62 | 195 | 2.6 | 5.2 | 0.00 | 0.00 | 0.00 | 87 | 1013.1 |
| 20260507015404 | 62 | 195 | 4.3 | 5.2 | 0.00 | 0.00 | 0.00 | 87 | 1013.0 |
| 20260507014901 | 62 | 214 | 0.9 | 0.9 | 0.00 | 0.00 | 0.00 | 87 | 1012.6 |
| 20260507014356 | 62 | 197 | 0.9 | 1.7 | 0.00 | 0.00 | 0.00 | 87 | 1012.6 |
| 20260507013853 | 62 | 234 | 1.7 | 2.6 | 0.00 | 0.00 | 0.00 | 87 | 1012.5 |
| 20260507013350 | 62 | 220 | 1.7 | 2.6 | 0.00 | 0.00 | 0.00 | 87 | 1012.6 |
| 20260507012848 | 62 | 199 | 0.9 | 1.7 | 0.00 | 0.00 | 0.00 | 86 | 1012.6 |
| 20260507012343 | 62 | 200 | 2.6 | 4.3 | 0.00 | 0.00 | 0.00 | 86 | 1012.7 |
| 20260507011841 | 62 | 206 | 2.6 | 4.3 | 0.00 | 0.00 | 0.00 | 86 | 1012.2 |
| 20260507011338 | 62 | 210 | 0.9 | 0.9 | 0.00 | 0.00 | 0.00 | 86 | 1012.4 |
| 20260507010832 | 62 | 210 | 1.7 | 6.1 | 0.00 | 0.00 | 0.00 | 86 | 1012.4 |
| 20260507010328 | 62 | 184 | 1.7 | 2.6 | 0.00 | 0.00 | 0.00 | 86 | 1012.2 |
| 20260507005825 | 63 | 189 | 1.7 | 2.6 | 0.00 | 0.00 | 0.00 | 85 | 1011.9 |
| 20260507005322 | 63 | 218 | 0.9 | 4.3 | 0.00 | 0.00 | 0.00 | 85 | 1011.9 |
| 20260507004819 | 63 | 207 | 0.9 | 0.9 | 0.00 | 0.00 | 0.00 | 85 | 1012.2 |
| 20260507004316 | 63 | 208 | 0.0 | 0.0 | 0.00 | 0.00 | 0.00 | 85 | 1012.1 |
| 20260507003813 | 63 | 170 | 4.3 | 6.1 | 0.00 | 0.00 | 0.00 | 84 | 1011.9 |
| 20260507003307 | 63 | 219 | 1.7 | 1.7 | 0.00 | 0.00 | 0.00 | 84 | 1011.8 |
| 20260507002758 | 63 | 188 | 4.3 | 5.2 | 0.00 | 0.00 | 0.00 | 84 | 1011.8 |
| 20260507002254 | 63 | 195 | 3.5 | 4.3 | 0.00 | 0.00 | 0.00 | 84 | 1012.1 |
| 20260507001751 | 63 | 214 | 1.7 | 2.6 | 0.00 | 0.00 | 0.00 | 84 | 1012.0 |
| 20260507001249 | 64 | 204 | 0.9 | 1.7 | 0.00 | 0.00 | 0.00 | 83 | 1012.0 |
| 20260507000745 | 64 | 184 | 3.5 | 5.2 | 0.00 | 0.00 | 0.00 | 84 | 1012.1 |
| 20260507000241 | 64 | 221 | 1.7 | 2.6 | 0.00 | 0.00 | 0.00 | 84 | 1011.8 |
| 20260506235738 | 64 | 200 | 3.5 | 7.0 | 0.00 | 0.00 | 0.00 | 84 | 1011.8 |
| 20260506235233 | 64 | 184 | 0.9 | 1.7 | 0.00 | 0.00 | 0.00 | 83 | 1011.6 |
| 20260506234730 | 64 | 200 | 1.7 | 1.7 | 0.00 | 0.00 | 0.00 | 84 | 1011.6 |
| 20260506234227 | 64 | 221 | 5.2 | 6.1 | 0.00 | 0.00 | 0.00 | 84 | 1011.5 |
| 20260506233725 | 64 | 198 | 1.7 | 2.6 | 0.00 | 0.00 | 0.00 | 84 | 1011.4 |
| 20260506233221 | 65 | 202 | 4.3 | 6.1 | 0.00 | 0.00 | 0.00 | 83 | 1011.4 |
| 20260506232718 | 65 | 196 | 7.0 | 8.7 | 0.00 | 0.00 | 0.00 | 82 | 1010.9 |
| 20260506232213 | 65 | 208 | 4.3 | 6.1 | 0.00 | 0.00 | 0.00 | 82 | 1011.2 |
| 20260506231710 | 65 | 172 | 2.6 | 5.2 | 0.00 | 0.00 | 0.00 | 82 | 1011.2 |
| 20260506231209 | 65 | 169 | 4.3 | 6.1 | 0.00 | 0.00 | 0.00 | 82 | 1011.3 |
| 20260506230705 | 65 | 165 | 5.2 | 6.1 | 0.00 | 0.00 | 0.00 | 82 | 1010.9 |
| 20260506230202 | 66 | 198 | 5.2 | 7.8 | 0.00 | 0.00 | 0.00 | 81 | 1010.9 |
| 20260506225658 | 66 | 231 | 5.2 | 7.0 | 0.00 | 0.00 | 0.00 | 80 | 1011.1 |
| 20260506225155 | 66 | 205 | 5.2 | 7.0 | 0.00 | 0.00 | 0.00 | 81 | 1010.8 |
| 20260506224652 | 66 | 140 | 2.6 | 2.6 | 0.00 | 0.00 | 0.00 | 81 | 1011.1 |
| 20260506224149 | 67 | 186 | 1.7 | 2.6 | 0.00 | 0.00 | 0.00 | 80 | 1011.2 |
| 20260506223645 | 67 | 149 | 1.7 | 2.6 | 0.00 | 0.00 | 0.00 | 80 | 1011.1 |
| 20260506223141 | 66 | 200 | 0.0 | 0.9 | 0.00 | 0.00 | 0.00 | 81 | 1010.9 |
| 20260506222638 | 67 | 167 | 6.1 | 8.7 | 0.00 | 0.00 | 0.00 | 80 | 1011.2 |
| 20260506222134 | 66 | 135 | 2.6 | 2.6 | 0.00 | 0.00 | 0.00 | 81 | 1010.6 |
| 20260506221632 | 66 | 201 | 3.5 | 5.2 | 0.00 | 0.00 | 0.00 | 81 | 1010.9 |
| 20260506221130 | 67 | 195 | 6.1 | 7.8 | 0.00 | 0.00 | 0.00 | 80 | 1010.8 |
| 20260506220626 | 68 | 167 | 6.1 | 9.6 | 0.00 | 0.00 | 0.00 | 79 | 1010.8 |
| 20260506220121 | 68 | 179 | 4.3 | 5.2 | 0.00 | 0.00 | 0.00 | 79 | 1010.5 |
| 20260506215618 | 69 | 194 | 3.5 | 5.2 | 0.00 | 0.00 | 0.00 | 77 | 1010.9 |
| 20260506215113 | 71 | 234 | 6.1 | 12.2 | 0.00 | 0.00 | 0.00 | 75 | 1010.4 |
| 20260506214611 | 71 | 192 | 4.3 | 7.0 | 0.00 | 0.00 | 0.00 | 76 | 1010.6 |
| 20260506214108 | 70 | 146 | 3.5 | 5.2 | 0.00 | 0.00 | 0.00 | 78 | 1010.7 |
| 20260506213606 | 72 | 234 | 4.3 | 6.1 | 0.00 | 0.00 | 0.00 | 76 | 1010.5 |
| 20260506213103 | 73 | 195 | 4.3 | 7.8 | 0.00 | 0.00 | 0.00 | 75 | 1010.5 |
| 20260506212600 | 73 | 180 | 1.7 | 5.2 | 0.00 | 0.00 | 0.00 | 74 | 1010.5 |
| 20260506212055 | 73 | 198 | 4.3 | 6.1 | 0.00 | 0.00 | 0.00 | 74 | 1010.6 |
| 20260506211551 | 73 | 150 | 2.6 | 5.2 | 0.00 | 0.00 | 0.00 | 76 | 1010.4 |
| 20260506211048 | 73 | 137 | 7.0 | 8.7 | 0.00 | 0.00 | 0.00 | 74 | 1010.3 |
| 20260506210545 | 74 | 218 | 4.3 | 7.0 | 0.00 | 0.00 | 0.00 | 74 | 1010.6 |
| 20260506210041 | 74 | 159 | 4.3 | 8.7 | 0.00 | 0.00 | 0.00 | 75 | 1010.4 |
| 20260506205538 | 74 | 190 | 2.6 | 4.3 | 0.00 | 0.00 | 0.00 | 75 | 1010.4 |
| 20260506205033 | 73 | 212 | 7.0 | 13.9 | 0.00 | 0.00 | 0.00 | 76 | 1010.5 |
| 20260506204532 | 75 | 191 | 4.3 | 6.1 | 0.00 | 0.00 | 0.00 | 74 | 1010.5 |
| 20260506204028 | 75 | 197 | 1.7 | 4.3 | 0.00 | 0.00 | 0.00 | 75 | 1010.3 |
| 20260506203527 | 75 | 136 | 8.7 | 12.2 | 0.00 | 0.00 | 0.00 | 74 | 1010.6 |
| 20260506203023 | 74 | 155 | 7.0 | 11.3 | 0.00 | 0.00 | 0.00 | 75 | 1010.2 |
| 20260506202520 | 74 | 211 | 3.5 | 4.3 | 0.00 | 0.00 | 0.00 | 76 | 1010.3 |
| 20260506202016 | 76 | 192 | 2.6 | 4.3 | 0.00 | 0.00 | 0.00 | 74 | 1010.3 |
| 20260506201514 | 75 | 196 | 3.5 | 6.1 | 0.00 | 0.00 | 0.00 | 77 | 1010.3 |
| 20260506201011 | 73 | 167 | 4.3 | 6.1 | 0.00 | 0.00 | 0.00 | 80 | 1010.4 |
| 20260506200507 | 73 | 192 | 2.6 | 2.6 | 0.00 | 0.00 | 0.00 | 81 | 1010.7 |
| 20260506200004 | 73 | 191 | 4.3 | 6.1 | 0.00 | 0.00 | 0.00 | 81 | 1010.8 |
| 20260506195501 | 73 | 179 | 6.1 | 7.0 | 0.00 | 0.00 | 0.00 | 81 | 1010.8 |
| 20260506194956 | 74 | 207 | 1.7 | 1.7 | 0.00 | 0.00 | 0.00 | 81 | 1010.5 |
| 20260506194454 | 75 | 188 | 5.2 | 7.8 | 0.00 | 0.00 | 0.00 | 78 | 1010.5 |
| 20260506193951 | 79 | 203 | 3.5 | 4.3 | 0.00 | 0.00 | 0.00 | 76 | 1010.4 |
| 20260506193448 | 81 | 208 | 2.6 | 2.6 | 0.00 | 0.00 | 0.00 | 75 | 1010.2 |
| 20260506192945 | 81 | 198 | 0.9 | 0.9 | 0.00 | 0.00 | 0.00 | 74 | 1010.2 |
| 20260506192442 | 81 | 229 | 1.7 | 1.7 | 0.00 | 0.00 | 0.00 | 74 | 1009.9 |
| 20260506191938 | 81 | 214 | 0.9 | 0.9 | 0.00 | 0.00 | 0.00 | 74 | 1010.2 |
| 20260506191435 | 82 | 221 | 0.9 | 0.9 | 0.00 | 0.00 | 0.00 | 74 | 1010.1 |
| 20260506190931 | 82 | 234 | 0.9 | 0.9 | 0.00 | 0.00 | 0.00 | 73 | 1010.2 |
| 20260506190428 | 82 | 217 | 0.0 | 0.9 | 0.00 | 0.00 | 0.00 | 74 | 1010.4 |
| 20260506185925 | 82 | 214 | 0.0 | 0.0 | 0.00 | 0.00 | 0.00 | 73 | 1010.4 |
| 20260506185422 | 82 | 219 | 0.9 | 0.9 | 0.00 | 0.00 | 0.00 | 71 | 1010.2 |
| 20260506184919 | 83 | 232 | 1.7 | 1.7 | 0.00 | 0.00 | 0.00 | 71 | 1010.5 |
| 20260506184416 | 83 | 222 | 0.9 | 0.9 | 0.00 | 0.00 | 0.00 | 71 | 1010.5 |
| 20260506183914 | 83 | 195 | 0.9 | 0.9 | 0.00 | 0.00 | 0.00 | 71 | 1010.5 |
| 20260506183409 | 83 | 217 | 1.7 | 1.7 | 0.00 | 0.00 | 0.00 | 71 | 1010.4 |
| 20260506182906 | 83 | 215 | 0.9 | 2.6 | 0.00 | 0.00 | 0.00 | 71 | 1010.5 |
| 20260506182403 | 83 | 204 | 2.6 | 4.3 | 0.00 | 0.00 | 0.00 | 70 | 1010.3 |
| 20260506181900 | 84 | 230 | 0.9 | 1.7 | 0.00 | 0.00 | 0.00 | 71 | 1010.5 |
| 20260506181358 | 84 | 218 | 0.9 | 0.9 | 0.00 | 0.00 | 0.00 | 71 | 1010.8 |
| 20260506180855 | 84 | 193 | 0.9 | 1.7 | 0.00 | 0.00 | 0.00 | 71 | 1010.7 |
| 20260506180351 | 83 | 202 | 0.9 | 0.9 | 0.00 | 0.00 | 0.00 | 70 | 1010.8 |
| 20260506175848 | 84 | 220 | 0.9 | 0.9 | 0.00 | 0.00 | 0.00 | 72 | 1010.6 |
| 20260506175345 | 83 | 196 | 0.9 | 0.9 | 0.00 | 0.00 | 0.00 | 70 | 1010.8 |
| 20260506174842 | 82 | 218 | 0.9 | 0.9 | 0.00 | 0.00 | 0.00 | 73 | 1010.7 |
| 20260506174339 | 80 | 203 | 0.9 | 1.7 | 0.00 | 0.00 | 0.00 | 75 | 1011.2 |
| 20260506173837 | 80 | 213 | 0.9 | 0.9 | 0.00 | 0.00 | 0.00 | 75 | 1010.7 |
| 20260506173333 | 78 | 202 | 3.5 | 4.3 | 0.00 | 0.00 | 0.00 | 76 | 1010.9 |
| 20260506172830 | 77 | 200 | 0.9 | 0.9 | 0.00 | 0.00 | 0.00 | 78 | 1011.2 |
| 20260506172327 | 76 | 193 | 0.9 | 0.9 | 0.00 | 0.00 | 0.00 | 79 | 1011.2 |
| 20260506171825 | 74 | 221 | 3.5 | 4.3 | 0.00 | 0.00 | 0.00 | 80 | 1011.3 |
| 20260506171321 | 74 | 195 | 0.9 | 1.7 | 0.00 | 0.00 | 0.00 | 82 | 1011.2 |
| 20260506170819 | 73 | 233 | 0.9 | 1.7 | 0.00 | 0.00 | 0.00 | 83 | 1011.3 |
| 20260506170315 | 72 | 208 | 0.9 | 0.9 | 0.00 | 0.00 | 0.00 | 84 | 1011.4 |
| 20260506165814 | 72 | 206 | 1.7 | 1.7 | 0.00 | 0.00 | 0.00 | 84 | 1011.4 |
| 20260506165311 | 71 | 194 | 2.6 | 4.3 | 0.00 | 0.00 | 0.00 | 85 | 1011.3 |
| 20260506164807 | 71 | 204 | 2.6 | 2.6 | 0.00 | 0.00 | 0.00 | 85 | 1011.5 |
| 20260506164304 | 71 | 213 | 4.3 | 7.0 | 0.00 | 0.00 | 0.00 | 85 | 1011.3 |
| 20260506163801 | 71 | 191 | 2.6 | 4.3 | 0.00 | 0.00 | 0.00 | 85 | 1011.3 |
| 20260506163256 | 71 | 175 | 2.6 | 4.3 | 0.00 | 0.00 | 0.00 | 86 | 1011.3 |
| 20260506162752 | 73 | 216 | 5.2 | 6.1 | 0.00 | 0.00 | 0.00 | 85 | 1011.4 |
| 20260506162250 | 77 | 196 | 1.7 | 2.6 | 0.00 | 0.00 | 0.00 | 86 | 1011.3 |
| 20260506161747 | 78 | 223 | 1.7 | 1.7 | 0.00 | 0.00 | 0.00 | 85 | 1011.1 |
| 20260506161245 | 78 | 217 | 2.6 | 4.3 | 0.00 | 0.00 | 0.00 | 85 | 1011.1 |
| 20260506160742 | 78 | 209 | 1.7 | 1.7 | 0.00 | 0.00 | 0.00 | 85 | 1011.2 |
| 20260506160238 | 78 | 189 | 0.0 | 0.9 | 0.00 | 0.00 | 0.00 | 85 | 1011.1 |
| 20260506155737 | 78 | 213 | 0.9 | 0.9 | 0.00 | 0.00 | 0.00 | 85 | 1011.2 |
| 20260506155233 | 77 | 198 | 0.9 | 0.9 | 0.00 | 0.00 | 0.00 | 86 | 1011.2 |
| 20260506153341 | 77 | 240 | 0.0 | 0.0 | 0.00 | 0.00 | 0.00 | 88 | 1011.2 |
| 20260506152838 | 77 | 241 | 0.0 | 0.0 | 0.00 | 0.00 | 0.00 | 89 | 1011.1 |
| 20260506152335 | 76 | 241 | 0.0 | 0.0 | 0.00 | 0.00 | 0.00 | 89 | 1010.6 |
| 20260506151834 | 76 | 241 | 0.9 | 0.9 | 0.00 | 0.00 | 0.00 | 89 | 1010.5 |
| 20260506151330 | 77 | 241 | 0.0 | 0.9 | 0.00 | 0.00 | 0.00 | 89 | 1010.3 |
| 20260506150827 | 76 | 242 | 0.0 | 0.0 | 0.00 | 0.00 | 0.00 | 91 | 1010.6 |
| 20260506150324 | 76 | 233 | 0.0 | 0.0 | 0.00 | 0.00 | 0.00 | 91 | 1010.0 |